TimeBeginning,TimeEnding,183245_PM2.5_PreScaled,183245_PM2.5_Scaled,183245_PM2.5_Unit,183245_PM2.5_Slope,183245_PM2.5_Offset,183245_PM2.5_Status,184245_PM2.5_PreScaled,184245_PM2.5_Scaled,184245_PM2.5_Unit,184245_PM2.5_Slope,184245_PM2.5_Offset,184245_PM2.5_Status,185245_PM2.5_PreScaled,185245_PM2.5_Scaled,185245_PM2.5_Unit,185245_PM2.5_Slope,185245_PM2.5_Offset,185245_PM2.5_Status,186245_PM2.5_PreScaled,186245_PM2.5_Scaled,186245_PM2.5_Unit,186245_PM2.5_Slope,186245_PM2.5_Offset,186245_PM2.5_Status,187245_PM2.5_PreScaled,187245_PM2.5_Scaled,187245_PM2.5_Unit,187245_PM2.5_Slope,187245_PM2.5_Offset,187245_PM2.5_Status,188245_PM2.5_PreScaled,188245_PM2.5_Scaled,188245_PM2.5_Unit,188245_PM2.5_Slope,188245_PM2.5_Offset,188245_PM2.5_Status,189245_PM2.5_PreScaled,189245_PM2.5_Scaled,189245_PM2.5_Unit,189245_PM2.5_Slope,189245_PM2.5_Offset,189245_PM2.5_Status,292245_PM2.5_PreScaled,292245_PM2.5_Scaled,292245_PM2.5_Unit,292245_PM2.5_Slope,292245_PM2.5_Offset,292245_PM2.5_Status
04/07/2019 07:30,04/07/2019 08:30,,,ug/m3,,,Invalid,2.37,2.37,ug/m3,1,0,Valid,,,ug/m3,,,Invalid,,,ug/m3,,,Invalid,,,ug/m3,,,Invalid,,,ug/m3,,,Invalid,,,ug/m3,,,Invalid,,,ug/m3,,,Invalid
04/07/2019 08:00,04/07/2019 09:00,,,ug/m3,,,Invalid,2.14,2.14,ug/m3,1,0,Valid,,,ug/m3,,,Invalid,,,ug/m3,,,Invalid,,,ug/m3,,,Invalid,,,ug/m3,,,Invalid,1.697,1.697,ug/m3,1,0,Valid,,,ug/m3,,,Invalid
04/07/2019 09:00,04/07/2019 10:00,1.21,1.21,ug/m3,1,0,Valid,1.887,1.887,ug/m3,1,0,Valid,,,ug/m3,,,Invalid,,,ug/m3,,,Invalid,,,ug/m3,,,Invalid,1.01,1.01,ug/m3,1,0,Valid,1.725,1.725,ug/m3,1,0,Valid,1.225,1.225,ug/m3,1,0,Valid
04/07/2019 10:00,04/07/2019 11:00,1.013,1.013,ug/m3,1,0,Valid,2.232,2.232,ug/m3,1,0,Valid,1.173,1.173,ug/m3,1,0,Valid,3.49,3.49,ug/m3,1,0,Valid,1.593,1.593,ug/m3,1,0,Valid,1.292,1.292,ug/m3,1,0,Valid,1.772,1.772,ug/m3,1,0,Valid,1.167,1.167,ug/m3,1,0,Valid
04/07/2019 11:00,04/07/2019 12:00,0.945,0.945,ug/m3,1,0,Valid,2.15,2.15,ug/m3,1,0,Valid,1.555,1.555,ug/m3,1,0,Valid,2.232,2.232,ug/m3,1,0,Valid,1.438,1.438,ug/m3,1,0,Valid,1.328,1.328,ug/m3,1,0,Valid,1.675,1.675,ug/m3,1,0,Valid,1.295,1.295,ug/m3,1,0,Valid
04/07/2019 12:00,04/07/2019 13:00,0.96,0.96,ug/m3,1,0,Valid,2.17,2.17,ug/m3,1,0,Valid,1.593,1.593,ug/m3,1,0,Valid,2.17,2.17,ug/m3,1,0,Valid,1.445,1.445,ug/m3,1,0,Valid,1.175,1.175,ug/m3,1,0,Valid,1.638,1.638,ug/m3,1,0,Valid,1.375,1.375,ug/m3,1,0,Valid
04/07/2019 13:00,04/07/2019 14:00,1.067,1.067,ug/m3,1,0,Valid,2.298,2.298,ug/m3,1,0,Valid,1.775,1.775,ug/m3,1,0,Valid,2.698,2.698,ug/m3,1,0,Valid,1.705,1.705,ug/m3,1,0,Valid,1.313,1.313,ug/m3,1,0,Valid,1.718,1.718,ug/m3,1,0,Valid,1.518,1.518,ug/m3,1,0,Valid
04/07/2019 14:00,04/07/2019 15:00,1.168,1.168,ug/m3,1,0,Valid,2.548,2.548,ug/m3,1,0,Valid,1.785,1.785,ug/m3,1,0,Valid,2.868,2.868,ug/m3,1,0,Valid,1.807,1.807,ug/m3,1,0,Valid,1.405,1.405,ug/m3,1,0,Valid,1.915,1.915,ug/m3,1,0,Valid,1.657,1.657,ug/m3,1,0,Valid
04/07/2019 15:00,04/07/2019 16:00,1.378,1.378,ug/m3,1,0,Valid,2.888,2.888,ug/m3,1,0,Valid,2.083,2.083,ug/m3,1,0,Valid,3.722,3.722,ug/m3,1,0,Valid,2.28,2.28,ug/m3,1,0,Valid,1.785,1.785,ug/m3,1,0,Valid,2.275,2.275,ug/m3,1,0,Valid,1.945,1.945,ug/m3,1,0,Valid
04/07/2019 16:00,04/07/2019 17:00,1.475,1.475,ug/m3,1,0,Valid,2.937,2.937,ug/m3,1,0,Valid,2.123,2.123,ug/m3,1,0,Valid,3.497,3.497,ug/m3,1,0,Valid,2.39,2.39,ug/m3,1,0,Valid,1.827,1.827,ug/m3,1,0,Valid,2.337,2.337,ug/m3,1,0,Valid,2.008,2.008,ug/m3,1,0,Valid
04/07/2019 17:00,04/07/2019 18:00,1.942,1.942,ug/m3,1,0,Valid,3.447,3.447,ug/m3,1,0,Valid,2.607,2.607,ug/m3,1,0,Valid,4.485,4.485,ug/m3,1,0,Valid,2.952,2.952,ug/m3,1,0,Valid,2.143,2.143,ug/m3,1,0,Valid,2.845,2.845,ug/m3,1,0,Valid,2.415,2.415,ug/m3,1,0,Valid
04/07/2019 18:00,04/07/2019 19:00,1.915,1.915,ug/m3,1,0,Valid,4.078,4.078,ug/m3,1,0,Valid,2.425,2.425,ug/m3,1,0,Valid,5.013,5.013,ug/m3,1,0,Valid,3.038,3.038,ug/m3,1,0,Valid,2.145,2.145,ug/m3,1,0,Valid,3.032,3.032,ug/m3,1,0,Valid,2.398,2.398,ug/m3,1,0,Valid
04/07/2019 19:00,04/07/2019 20:00,2.345,2.345,ug/m3,1,0,Valid,3.965,3.965,ug/m3,1,0,Valid,2.267,2.267,ug/m3,1,0,Valid,4.813,4.813,ug/m3,1,0,Valid,3.475,3.475,ug/m3,1,0,Valid,2.297,2.297,ug/m3,1,0,Valid,3.638,3.638,ug/m3,1,0,Valid,2.66,2.66,ug/m3,1,0,Valid
04/07/2019 20:00,04/07/2019 21:00,3.053,3.053,ug/m3,1,0,Valid,5.233,5.233,ug/m3,1,0,Valid,2.41,2.41,ug/m3,1,0,Valid,6.55,6.55,ug/m3,1,0,Valid,3.667,3.667,ug/m3,1,0,Valid,2.613,2.613,ug/m3,1,0,Valid,3.938,3.938,ug/m3,1,0,Valid,3.035,3.035,ug/m3,1,0,Valid
04/07/2019 21:00,04/07/2019 22:00,3.023,3.023,ug/m3,1,0,Valid,4.755,4.755,ug/m3,1,0,Valid,2.683,2.683,ug/m3,1,0,Valid,5.483,5.483,ug/m3,1,0,Valid,4.862,4.862,ug/m3,1,0,Valid,3.188,3.188,ug/m3,1,0,Valid,4.24,4.24,ug/m3,1,0,Valid,3.242,3.242,ug/m3,1,0,Valid
04/07/2019 22:00,04/07/2019 23:00,2.59,2.59,ug/m3,1,0,Valid,3.84,3.84,ug/m3,1,0,Valid,2.455,2.455,ug/m3,1,0,Valid,5.682,5.682,ug/m3,1,0,Valid,4.208,4.208,ug/m3,1,0,Valid,2.578,2.578,ug/m3,1,0,Valid,3.755,3.755,ug/m3,1,0,Valid,3.35,3.35,ug/m3,1,0,Valid
04/07/2019 23:00,05/07/2019 00:00,2.243,2.243,ug/m3,1,0,Valid,3.35,3.35,ug/m3,1,0,Valid,2.042,2.042,ug/m3,1,0,Valid,3.888,3.888,ug/m3,1,0,Valid,3.632,3.632,ug/m3,1,0,Valid,2.308,2.308,ug/m3,1,0,Valid,3.25,3.25,ug/m3,1,0,Valid,2.77,2.77,ug/m3,1,0,Valid
05/07/2019 00:00,05/07/2019 01:00,1.83,1.83,ug/m3,1,0,Valid,3.038,3.038,ug/m3,1,0,Valid,1.82,1.82,ug/m3,1,0,Valid,3.217,3.217,ug/m3,1,0,Valid,3.202,3.202,ug/m3,1,0,Valid,1.98,1.98,ug/m3,1,0,Valid,2.775,2.775,ug/m3,1,0,Valid,2.325,2.325,ug/m3,1,0,Valid
05/07/2019 01:00,05/07/2019 02:00,2.278,2.278,ug/m3,1,0,Valid,3.41,3.41,ug/m3,1,0,Valid,1.938,1.938,ug/m3,1,0,Valid,4.11,4.11,ug/m3,1,0,Valid,3.802,3.802,ug/m3,1,0,Valid,2.18,2.18,ug/m3,1,0,Valid,3.678,3.678,ug/m3,1,0,Valid,2.805,2.805,ug/m3,1,0,Valid
05/07/2019 02:00,05/07/2019 03:00,2.2,2.2,ug/m3,1,0,Valid,3.175,3.175,ug/m3,1,0,Valid,2.22,2.22,ug/m3,1,0,Valid,3.817,3.817,ug/m3,1,0,Valid,4.062,4.062,ug/m3,1,0,Valid,2.305,2.305,ug/m3,1,0,Valid,3.233,3.233,ug/m3,1,0,Valid,2.532,2.532,ug/m3,1,0,Valid
05/07/2019 03:00,05/07/2019 04:00,1.77,1.77,ug/m3,1,0,Valid,2.968,2.968,ug/m3,1,0,Valid,1.857,1.857,ug/m3,1,0,Valid,3.165,3.165,ug/m3,1,0,Valid,3.148,3.148,ug/m3,1,0,Valid,1.85,1.85,ug/m3,1,0,Valid,2.92,2.92,ug/m3,1,0,Valid,2.267,2.267,ug/m3,1,0,Valid
05/07/2019 04:00,05/07/2019 05:00,2.048,2.048,ug/m3,1,0,Valid,3.177,3.177,ug/m3,1,0,Valid,2.095,2.095,ug/m3,1,0,Valid,3.72,3.72,ug/m3,1,0,Valid,3.767,3.767,ug/m3,1,0,Valid,2.08,2.08,ug/m3,1,0,Valid,3.255,3.255,ug/m3,1,0,Valid,2.535,2.535,ug/m3,1,0,Valid
05/07/2019 05:00,05/07/2019 06:00,2.535,2.535,ug/m3,1,0,Valid,3.61,3.61,ug/m3,1,0,Valid,2.32,2.32,ug/m3,1,0,Valid,4.43,4.43,ug/m3,1,0,Valid,4.655,4.655,ug/m3,1,0,Valid,2.442,2.442,ug/m3,1,0,Valid,4.083,4.083,ug/m3,1,0,Valid,3.25,3.25,ug/m3,1,0,Valid
05/07/2019 06:00,05/07/2019 07:00,2.41,2.41,ug/m3,1,0,Valid,3.95,3.95,ug/m3,1,0,Valid,2.52,2.52,ug/m3,1,0,Valid,4.56,4.56,ug/m3,1,0,Valid,4.25,4.25,ug/m3,1,0,Valid,2.532,2.532,ug/m3,1,0,Valid,4.135,4.135,ug/m3,1,0,Valid,3.175,3.175,ug/m3,1,0,Valid
05/07/2019 07:00,05/07/2019 08:00,2.127,2.127,ug/m3,1,0,Valid,3.67,3.67,ug/m3,1,0,Valid,2.248,2.248,ug/m3,1,0,Valid,4.142,4.142,ug/m3,1,0,Valid,3.723,3.723,ug/m3,1,0,Valid,2.34,2.34,ug/m3,1,0,Valid,3.745,3.745,ug/m3,1,0,Valid,2.905,2.905,ug/m3,1,0,Valid
05/07/2019 08:00,05/07/2019 09:00,1.878,1.878,ug/m3,1,0,Valid,3.197,3.197,ug/m3,1,0,Valid,2.025,2.025,ug/m3,1,0,Valid,3.448,3.448,ug/m3,1,0,Valid,3.047,3.047,ug/m3,1,0,Valid,2.04,2.04,ug/m3,1,0,Valid,3.033,3.033,ug/m3,1,0,Valid,2.488,2.488,ug/m3,1,0,Valid
05/07/2019 09:00,05/07/2019 10:00,1.725,1.725,ug/m3,1,0,Valid,3.062,3.062,ug/m3,1,0,Valid,2.13,2.13,ug/m3,1,0,Valid,3.337,3.337,ug/m3,1,0,Valid,2.895,2.895,ug/m3,1,0,Valid,1.98,1.98,ug/m3,1,0,Valid,2.64,2.64,ug/m3,1,0,Valid,2.358,2.358,ug/m3,1,0,Valid
05/07/2019 10:00,05/07/2019 11:00,1.472,1.472,ug/m3,1,0,Valid,2.763,2.763,ug/m3,1,0,Valid,1.975,1.975,ug/m3,1,0,Valid,3.448,3.448,ug/m3,1,0,Valid,2.498,2.498,ug/m3,1,0,Valid,1.65,1.65,ug/m3,1,0,Valid,2.245,2.245,ug/m3,1,0,Valid,1.977,1.977,ug/m3,1,0,Valid
05/07/2019 11:00,05/07/2019 12:00,1.442,1.442,ug/m3,1,0,Valid,2.577,2.577,ug/m3,1,0,Valid,1.91,1.91,ug/m3,1,0,Valid,3.338,3.338,ug/m3,1,0,Valid,2.207,2.207,ug/m3,1,0,Valid,1.695,1.695,ug/m3,1,0,Valid,2.278,2.278,ug/m3,1,0,Valid,1.948,1.948,ug/m3,1,0,Valid
05/07/2019 12:00,05/07/2019 13:00,1.197,1.197,ug/m3,1,0,Valid,2.395,2.395,ug/m3,1,0,Valid,1.78,1.78,ug/m3,1,0,Valid,3.31,3.31,ug/m3,1,0,Valid,1.947,1.947,ug/m3,1,0,Valid,1.547,1.547,ug/m3,1,0,Valid,1.982,1.982,ug/m3,1,0,Valid,1.755,1.755,ug/m3,1,0,Valid
05/07/2019 13:00,05/07/2019 14:00,1.233,1.233,ug/m3,1,0,Valid,2.55,2.55,ug/m3,1,0,Valid,1.857,1.857,ug/m3,1,0,Valid,3.685,3.685,ug/m3,1,0,Valid,2.25,2.25,ug/m3,1,0,Valid,1.673,1.673,ug/m3,1,0,Valid,2.125,2.125,ug/m3,1,0,Valid,1.77,1.77,ug/m3,1,0,Valid
05/07/2019 14:00,05/07/2019 15:00,1.3,1.3,ug/m3,1,0,Valid,3.043,3.043,ug/m3,1,0,Valid,1.975,1.975,ug/m3,1,0,Valid,2.877,2.877,ug/m3,1,0,Valid,2.295,2.295,ug/m3,1,0,Valid,1.838,1.838,ug/m3,1,0,Valid,2.16,2.16,ug/m3,1,0,Valid,1.893,1.893,ug/m3,1,0,Valid
05/07/2019 15:00,05/07/2019 16:00,1.453,1.453,ug/m3,1,0,Valid,2.85,2.85,ug/m3,1,0,Valid,2.002,2.002,ug/m3,1,0,Valid,3.483,3.483,ug/m3,1,0,Valid,2.52,2.52,ug/m3,1,0,Valid,1.773,1.773,ug/m3,1,0,Valid,2.36,2.36,ug/m3,1,0,Valid,2.125,2.125,ug/m3,1,0,Valid
05/07/2019 16:00,05/07/2019 17:00,1.74,1.74,ug/m3,1,0,Valid,3.105,3.105,ug/m3,1,0,Valid,2.468,2.468,ug/m3,1,0,Valid,4.008,4.008,ug/m3,1,0,Valid,2.785,2.785,ug/m3,1,0,Valid,1.94,1.94,ug/m3,1,0,Valid,2.698,2.698,ug/m3,1,0,Valid,2.27,2.27,ug/m3,1,0,Valid
05/07/2019 17:00,05/07/2019 18:00,1.977,1.977,ug/m3,1,0,Valid,3.992,3.992,ug/m3,1,0,Valid,2.602,2.602,ug/m3,1,0,Valid,5.11,5.11,ug/m3,1,0,Valid,3.212,3.212,ug/m3,1,0,Valid,2.113,2.113,ug/m3,1,0,Valid,3.012,3.012,ug/m3,1,0,Valid,2.627,2.627,ug/m3,1,0,Valid
05/07/2019 18:00,05/07/2019 19:00,1.64,1.64,ug/m3,1,0,Valid,3.325,3.325,ug/m3,1,0,Valid,2.37,2.37,ug/m3,1,0,Valid,4.942,4.942,ug/m3,1,0,Valid,3.227,3.227,ug/m3,1,0,Valid,2.365,2.365,ug/m3,1,0,Valid,5.188,5.188,ug/m3,1,0,Valid,2.472,2.472,ug/m3,1,0,Valid
05/07/2019 19:00,05/07/2019 20:00,1.822,1.822,ug/m3,1,0,Valid,3.807,3.807,ug/m3,1,0,Valid,2.54,2.54,ug/m3,1,0,Valid,5.995,5.995,ug/m3,1,0,Valid,3.65,3.65,ug/m3,1,0,Valid,2.812,2.812,ug/m3,1,0,Valid,3.748,3.748,ug/m3,1,0,Valid,2.392,2.392,ug/m3,1,0,Valid
05/07/2019 20:00,05/07/2019 21:00,2.405,2.405,ug/m3,1,0,Valid,3.59,3.59,ug/m3,1,0,Valid,3.125,3.125,ug/m3,1,0,Valid,4.31,4.31,ug/m3,1,0,Valid,3.74,3.74,ug/m3,1,0,Valid,6.768,6.768,ug/m3,1,0,Valid,5.118,5.118,ug/m3,1,0,Valid,3.043,3.043,ug/m3,1,0,Valid
05/07/2019 21:00,05/07/2019 22:00,4.352,4.352,ug/m3,1,0,Valid,5.055,5.055,ug/m3,1,0,Valid,2.392,2.392,ug/m3,1,0,Valid,5.597,5.597,ug/m3,1,0,Valid,4.195,4.195,ug/m3,1,0,Valid,3.765,3.765,ug/m3,1,0,Valid,11.263,11.263,ug/m3,1,0,Valid,11.82,11.82,ug/m3,1,0,Valid
05/07/2019 22:00,05/07/2019 23:00,3.028,3.028,ug/m3,1,0,Valid,3.827,3.827,ug/m3,1,0,Valid,3.243,3.243,ug/m3,1,0,Valid,4.862,4.862,ug/m3,1,0,Valid,4.33,4.33,ug/m3,1,0,Valid,2.887,2.887,ug/m3,1,0,Valid,4.97,4.97,ug/m3,1,0,Valid,28.487,28.487,ug/m3,1,0,Valid
05/07/2019 23:00,06/07/2019 00:00,2.955,2.955,ug/m3,1,0,Valid,4.242,4.242,ug/m3,1,0,Valid,3.005,3.005,ug/m3,1,0,Valid,5.108,5.108,ug/m3,1,0,Valid,4.935,4.935,ug/m3,1,0,Valid,3.063,3.063,ug/m3,1,0,Valid,4.262,4.262,ug/m3,1,0,Valid,9.422,9.422,ug/m3,1,0,Valid
06/07/2019 00:00,06/07/2019 01:00,2.76,2.76,ug/m3,1,0,Valid,4.697,4.697,ug/m3,1,0,Valid,2.652,2.652,ug/m3,1,0,Valid,5.558,5.558,ug/m3,1,0,Valid,5.165,5.165,ug/m3,1,0,Valid,2.757,2.757,ug/m3,1,0,Valid,5.127,5.127,ug/m3,1,0,Valid,3.415,3.415,ug/m3,1,0,Valid
06/07/2019 01:00,06/07/2019 02:00,2.46,2.46,ug/m3,1,0,Valid,3.317,3.317,ug/m3,1,0,Valid,2.3,2.3,ug/m3,1,0,Valid,4.398,4.398,ug/m3,1,0,Valid,4.378,4.378,ug/m3,1,0,Valid,2.363,2.363,ug/m3,1,0,Valid,4.435,4.435,ug/m3,1,0,Valid,3.188,3.188,ug/m3,1,0,Valid
06/07/2019 02:00,06/07/2019 03:00,1.88,1.88,ug/m3,1,0,Valid,2.883,2.883,ug/m3,1,0,Valid,1.953,1.953,ug/m3,1,0,Valid,3.58,3.58,ug/m3,1,0,Valid,3.585,3.585,ug/m3,1,0,Valid,1.935,1.935,ug/m3,1,0,Valid,3.117,3.117,ug/m3,1,0,Valid,2.425,2.425,ug/m3,1,0,Valid
06/07/2019 03:00,06/07/2019 04:00,1.94,1.94,ug/m3,1,0,Valid,2.81,2.81,ug/m3,1,0,Valid,1.823,1.823,ug/m3,1,0,Valid,3.42,3.42,ug/m3,1,0,Valid,3.527,3.527,ug/m3,1,0,Valid,1.74,1.74,ug/m3,1,0,Valid,3.032,3.032,ug/m3,1,0,Valid,2.185,2.185,ug/m3,1,0,Valid
06/07/2019 04:00,06/07/2019 05:00,2.035,2.035,ug/m3,1,0,Valid,2.993,2.993,ug/m3,1,0,Valid,1.96,1.96,ug/m3,1,0,Valid,3.69,3.69,ug/m3,1,0,Valid,3.897,3.897,ug/m3,1,0,Valid,1.92,1.92,ug/m3,1,0,Valid,3.348,3.348,ug/m3,1,0,Valid,2.533,2.533,ug/m3,1,0,Valid
06/07/2019 05:00,06/07/2019 06:00,2.555,2.555,ug/m3,1,0,Valid,3.475,3.475,ug/m3,1,0,Valid,2.32,2.32,ug/m3,1,0,Valid,4.652,4.652,ug/m3,1,0,Valid,4.26,4.26,ug/m3,1,0,Valid,2.39,2.39,ug/m3,1,0,Valid,4.163,4.163,ug/m3,1,0,Valid,3.153,3.153,ug/m3,1,0,Valid
06/07/2019 06:00,06/07/2019 07:00,2.895,2.895,ug/m3,1,0,Valid,4.147,4.147,ug/m3,1,0,Valid,2.52,2.52,ug/m3,1,0,Valid,5.308,5.308,ug/m3,1,0,Valid,4.728,4.728,ug/m3,1,0,Valid,2.743,2.743,ug/m3,1,0,Valid,4.71,4.71,ug/m3,1,0,Valid,3.413,3.413,ug/m3,1,0,Valid
06/07/2019 07:00,06/07/2019 08:00,2.295,2.295,ug/m3,1,0,Valid,3.355,3.355,ug/m3,1,0,Valid,2.303,2.303,ug/m3,1,0,Valid,4.35,4.35,ug/m3,1,0,Valid,4.07,4.07,ug/m3,1,0,Valid,2.35,2.35,ug/m3,1,0,Valid,4.2,4.2,ug/m3,1,0,Valid,2.95,2.95,ug/m3,1,0,Valid
06/07/2019 08:00,06/07/2019 09:00,2.102,2.102,ug/m3,1,0,Valid,3.385,3.385,ug/m3,1,0,Valid,2.19,2.19,ug/m3,1,0,Valid,3.895,3.895,ug/m3,1,0,Valid,3.62,3.62,ug/m3,1,0,Valid,2.057,2.057,ug/m3,1,0,Valid,3.52,3.52,ug/m3,1,0,Valid,2.863,2.863,ug/m3,1,0,Valid
06/07/2019 09:00,06/07/2019 10:00,2.08,2.08,ug/m3,1,0,Valid,3.71,3.71,ug/m3,1,0,Valid,2.295,2.295,ug/m3,1,0,Valid,4.122,4.122,ug/m3,1,0,Valid,3.707,3.707,ug/m3,1,0,Valid,2.127,2.127,ug/m3,1,0,Valid,3.453,3.453,ug/m3,1,0,Valid,2.888,2.888,ug/m3,1,0,Valid
06/07/2019 10:00,06/07/2019 11:00,1.958,1.958,ug/m3,1,0,Valid,3.4,3.4,ug/m3,1,0,Valid,2.283,2.283,ug/m3,1,0,Valid,4.1,4.1,ug/m3,1,0,Valid,3.298,3.298,ug/m3,1,0,Valid,1.992,1.992,ug/m3,1,0,Valid,3.265,3.265,ug/m3,1,0,Valid,2.603,2.603,ug/m3,1,0,Valid
06/07/2019 11:00,06/07/2019 12:00,1.607,1.607,ug/m3,1,0,Valid,6.727,6.727,ug/m3,1,0,Valid,2.077,2.077,ug/m3,1,0,Valid,4.5,4.5,ug/m3,1,0,Valid,3.08,3.08,ug/m3,1,0,Valid,1.81,1.81,ug/m3,1,0,Valid,2.742,2.742,ug/m3,1,0,Valid,2.322,2.322,ug/m3,1,0,Valid
06/07/2019 12:00,06/07/2019 13:00,1.475,1.475,ug/m3,1,0,Valid,4.358,4.358,ug/m3,1,0,Valid,1.795,1.795,ug/m3,1,0,Valid,5.265,5.265,ug/m3,1,0,Valid,2.572,2.572,ug/m3,1,0,Valid,1.567,1.567,ug/m3,1,0,Valid,2.752,2.752,ug/m3,1,0,Valid,2.037,2.037,ug/m3,1,0,Valid
06/07/2019 13:00,06/07/2019 14:00,2.582,2.582,ug/m3,1,0,Valid,4.735,4.735,ug/m3,1,0,Valid,2.465,2.465,ug/m3,1,0,Valid,6.335,6.335,ug/m3,1,0,Valid,4.673,4.673,ug/m3,1,0,Valid,2.593,2.593,ug/m3,1,0,Valid,4.113,4.113,ug/m3,1,0,Valid,3.495,3.495,ug/m3,1,0,Valid
06/07/2019 14:00,06/07/2019 15:00,3.57,3.57,ug/m3,1,0,Valid,7.052,7.052,ug/m3,1,0,Valid,2.875,2.875,ug/m3,1,0,Valid,6.312,6.312,ug/m3,1,0,Valid,6.383,6.383,ug/m3,1,0,Valid,3.387,3.387,ug/m3,1,0,Invalid,5.248,5.248,ug/m3,1,0,Valid,4.59,4.59,ug/m3,1,0,Valid
06/07/2019 15:00,06/07/2019 16:00,3.387,3.387,ug/m3,1,0,Valid,5.442,5.442,ug/m3,1,0,Valid,3.09,3.09,ug/m3,1,0,Invalid,5.97,5.97,ug/m3,1,0,Valid,6.148,6.148,ug/m3,1,0,Valid,3.35,3.35,ug/m3,1,0,Valid,5.13,5.13,ug/m3,1,0,Valid,4.655,4.655,ug/m3,1,0,Valid
06/07/2019 16:00,06/07/2019 17:00,3.4,3.4,ug/m3,1,0,Valid,6.042,6.042,ug/m3,1,0,Valid,2.95,2.95,ug/m3,1,0,Valid,6.62,6.62,ug/m3,1,0,Valid,6.39,6.39,ug/m3,1,0,Valid,3.41,3.41,ug/m3,1,0,Valid,5.73,5.73,ug/m3,1,0,Valid,4.39,4.39,ug/m3,1,0,Valid
06/07/2019 17:00,06/07/2019 18:00,2.433,2.433,ug/m3,1,0,Valid,5.655,5.655,ug/m3,1,0,Valid,2.41,2.41,ug/m3,1,0,Valid,5.758,5.758,ug/m3,1,0,Valid,4.493,4.493,ug/m3,1,0,Valid,2.403,2.403,ug/m3,1,0,Invalid,3.555,3.555,ug/m3,1,0,Valid,2.843,2.843,ug/m3,1,0,Valid
06/07/2019 18:00,06/07/2019 19:00,2.72,2.72,ug/m3,1,0,Valid,5.395,5.395,ug/m3,1,0,Valid,2.52,2.52,ug/m3,1,0,Valid,6.183,6.183,ug/m3,1,0,Valid,5.305,5.305,ug/m3,1,0,Valid,3.047,3.047,ug/m3,1,0,Valid,4.657,4.657,ug/m3,1,0,Valid,4.093,4.093,ug/m3,1,0,Valid
06/07/2019 19:00,06/07/2019 20:00,4.047,4.047,ug/m3,1,0,Valid,5.06,5.06,ug/m3,1,0,Valid,3.238,3.238,ug/m3,1,0,Valid,6.858,6.858,ug/m3,1,0,Valid,7.793,7.793,ug/m3,1,0,Valid,4.128,4.128,ug/m3,1,0,Valid,6.26,6.26,ug/m3,1,0,Valid,5.06,5.06,ug/m3,1,0,Valid
06/07/2019 20:00,06/07/2019 21:00,5.64,5.64,ug/m3,1,0,Valid,5.545,5.545,ug/m3,1,0,Valid,3.525,3.525,ug/m3,1,0,Valid,6.92,6.92,ug/m3,1,0,Valid,8.325,8.325,ug/m3,1,0,Valid,4.702,4.702,ug/m3,1,0,Valid,6.192,6.192,ug/m3,1,0,Valid,5.655,5.655,ug/m3,1,0,Valid
06/07/2019 21:00,06/07/2019 22:00,3.258,3.258,ug/m3,1,0,Valid,4.457,4.457,ug/m3,1,0,Valid,2.93,2.93,ug/m3,1,0,Valid,6.028,6.028,ug/m3,1,0,Valid,6.25,6.25,ug/m3,1,0,Valid,3.052,3.052,ug/m3,1,0,Valid,4.68,4.68,ug/m3,1,0,Valid,4.188,4.188,ug/m3,1,0,Valid
06/07/2019 22:00,06/07/2019 23:00,2.328,2.328,ug/m3,1,0,Valid,2.872,2.872,ug/m3,1,0,Valid,2.18,2.18,ug/m3,1,0,Valid,3.76,3.76,ug/m3,1,0,Valid,4.383,4.383,ug/m3,1,0,Valid,2.42,2.42,ug/m3,1,0,Valid,3.08,3.08,ug/m3,1,0,Valid,2.45,2.45,ug/m3,1,0,Valid
06/07/2019 23:00,07/07/2019 00:00,2.123,2.123,ug/m3,1,0,Valid,2.912,2.912,ug/m3,1,0,Valid,1.988,1.988,ug/m3,1,0,Valid,3.592,3.592,ug/m3,1,0,Valid,3.607,3.607,ug/m3,1,0,Valid,2.002,2.002,ug/m3,1,0,Valid,3.125,3.125,ug/m3,1,0,Valid,2.783,2.783,ug/m3,1,0,Valid
07/07/2019 00:00,07/07/2019 01:00,2.822,2.822,ug/m3,1,0,Valid,3.188,3.188,ug/m3,1,0,Valid,2.483,2.483,ug/m3,1,0,Invalid,4.065,4.065,ug/m3,1,0,Valid,4.658,4.658,ug/m3,1,0,Valid,2.62,2.62,ug/m3,1,0,Valid,3.592,3.592,ug/m3,1,0,Valid,3.352,3.352,ug/m3,1,0,Valid
07/07/2019 01:00,07/07/2019 02:00,2.723,2.723,ug/m3,1,0,Valid,3.53,3.53,ug/m3,1,0,Valid,2.525,2.525,ug/m3,1,0,Valid,4.362,4.362,ug/m3,1,0,Valid,4.685,4.685,ug/m3,1,0,Valid,2.618,2.618,ug/m3,1,0,Valid,4.09,4.09,ug/m3,1,0,Valid,3.658,3.658,ug/m3,1,0,Valid
07/07/2019 02:00,07/07/2019 03:00,2.845,2.845,ug/m3,1,0,Valid,3.59,3.59,ug/m3,1,0,Valid,2.57,2.57,ug/m3,1,0,Valid,4.497,4.497,ug/m3,1,0,Valid,4.942,4.942,ug/m3,1,0,Valid,2.752,2.752,ug/m3,1,0,Valid,4.087,4.087,ug/m3,1,0,Valid,3.75,3.75,ug/m3,1,0,Valid
07/07/2019 03:00,07/07/2019 04:00,3.348,3.348,ug/m3,1,0,Valid,3.725,3.725,ug/m3,1,0,Valid,2.96,2.96,ug/m3,1,0,Valid,4.59,4.59,ug/m3,1,0,Valid,5.915,5.915,ug/m3,1,0,Valid,3.323,3.323,ug/m3,1,0,Valid,4.085,4.085,ug/m3,1,0,Valid,4.05,4.05,ug/m3,1,0,Valid
07/07/2019 04:00,07/07/2019 05:00,3.017,3.017,ug/m3,1,0,Valid,3.658,3.658,ug/m3,1,0,Valid,2.86,2.86,ug/m3,1,0,Invalid,4.26,4.26,ug/m3,1,0,Valid,5.18,5.18,ug/m3,1,0,Valid,3.26,3.26,ug/m3,1,0,Valid,3.895,3.895,ug/m3,1,0,Valid,3.91,3.91,ug/m3,1,0,Valid
07/07/2019 05:00,07/07/2019 06:00,2.54,2.54,ug/m3,1,0,Valid,3.142,3.142,ug/m3,1,0,Valid,2.587,2.587,ug/m3,1,0,Valid,3.785,3.785,ug/m3,1,0,Valid,4.352,4.352,ug/m3,1,0,Valid,2.735,2.735,ug/m3,1,0,Valid,3.352,3.352,ug/m3,1,0,Valid,3.267,3.267,ug/m3,1,0,Valid
07/07/2019 06:00,07/07/2019 07:00,1.612,1.612,ug/m3,1,0,Valid,2.183,2.183,ug/m3,1,0,Valid,1.815,1.815,ug/m3,1,0,Valid,2.627,2.627,ug/m3,1,0,Valid,2.72,2.72,ug/m3,1,0,Valid,1.725,1.725,ug/m3,1,0,Valid,2.165,2.165,ug/m3,1,0,Valid,2.065,2.065,ug/m3,1,0,Valid
07/07/2019 07:00,07/07/2019 08:00,1.067,1.067,ug/m3,1,0,Valid,1.902,1.902,ug/m3,1,0,Valid,1.43,1.43,ug/m3,1,0,Valid,2.228,2.228,ug/m3,1,0,Valid,1.725,1.725,ug/m3,1,0,Valid,1.275,1.275,ug/m3,1,0,Valid,1.71,1.71,ug/m3,1,0,Valid,1.55,1.55,ug/m3,1,0,Valid
07/07/2019 08:00,07/07/2019 09:00,0.892,0.892,ug/m3,1,0,Valid,1.715,1.715,ug/m3,1,0,Valid,1.38,1.38,ug/m3,1,0,Valid,2.105,2.105,ug/m3,1,0,Valid,1.375,1.375,ug/m3,1,0,Valid,1.062,1.062,ug/m3,1,0,Valid,1.422,1.422,ug/m3,1,0,Valid,1.388,1.388,ug/m3,1,0,Valid
07/07/2019 09:00,07/07/2019 10:00,0.96,0.96,ug/m3,1,0,Valid,2.015,2.015,ug/m3,1,0,Valid,1.493,1.493,ug/m3,1,0,Valid,2.26,2.26,ug/m3,1,0,Valid,1.502,1.502,ug/m3,1,0,Valid,1.118,1.118,ug/m3,1,0,Valid,1.37,1.37,ug/m3,1,0,Valid,1.718,1.718,ug/m3,1,0,Valid
07/07/2019 10:00,07/07/2019 11:00,1.03,1.03,ug/m3,1,0,Valid,2.275,2.275,ug/m3,1,0,Valid,1.585,1.585,ug/m3,1,0,Valid,2.583,2.583,ug/m3,1,0,Valid,1.585,1.585,ug/m3,1,0,Valid,1.165,1.165,ug/m3,1,0,Valid,1.478,1.478,ug/m3,1,0,Valid,1.562,1.562,ug/m3,1,0,Valid
07/07/2019 11:00,07/07/2019 12:00,1.165,1.165,ug/m3,1,0,Valid,2.42,2.42,ug/m3,1,0,Valid,1.602,1.602,ug/m3,1,0,Valid,2.605,2.605,ug/m3,1,0,Valid,1.532,1.532,ug/m3,1,0,Valid,1.16,1.16,ug/m3,1,0,Valid,1.51,1.51,ug/m3,1,0,Valid,1.563,1.563,ug/m3,1,0,Valid
07/07/2019 12:00,07/07/2019 13:00,0.925,0.925,ug/m3,1,0,Valid,2.47,2.47,ug/m3,1,0,Valid,1.58,1.58,ug/m3,1,0,Valid,3.005,3.005,ug/m3,1,0,Valid,1.47,1.47,ug/m3,1,0,Valid,1.412,1.412,ug/m3,1,0,Invalid,1.523,1.523,ug/m3,1,0,Valid,3.625,3.625,ug/m3,1,0,Valid
07/07/2019 13:00,07/07/2019 14:00,0.775,0.775,ug/m3,1,0,Valid,2.29,2.29,ug/m3,1,0,Valid,1.568,1.568,ug/m3,1,0,Valid,2.612,2.612,ug/m3,1,0,Valid,1.28,1.28,ug/m3,1,0,Valid,1.01,1.01,ug/m3,1,0,Valid,1.308,1.308,ug/m3,1,0,Valid,1.92,1.92,ug/m3,1,0,Valid
07/07/2019 14:00,07/07/2019 15:00,0.71,0.71,ug/m3,1,0,Valid,2.37,2.37,ug/m3,1,0,Valid,1.453,1.453,ug/m3,1,0,Valid,2.47,2.47,ug/m3,1,0,Valid,1.243,1.243,ug/m3,1,0,Valid,1.015,1.015,ug/m3,1,0,Valid,1.262,1.262,ug/m3,1,0,Valid,1.748,1.748,ug/m3,1,0,Valid
07/07/2019 15:00,07/07/2019 16:00,0.643,0.643,ug/m3,1,0,Valid,2.415,2.415,ug/m3,1,0,Valid,1.418,1.418,ug/m3,1,0,Valid,3.025,3.025,ug/m3,1,0,Valid,1.145,1.145,ug/m3,1,0,Valid,1.015,1.015,ug/m3,1,0,Valid,1.46,1.46,ug/m3,1,0,Valid,1.5,1.5,ug/m3,1,0,Valid
07/07/2019 16:00,07/07/2019 17:00,0.672,0.672,ug/m3,1,0,Valid,2.082,2.082,ug/m3,1,0,Valid,1.458,1.458,ug/m3,1,0,Valid,2.695,2.695,ug/m3,1,0,Valid,1.14,1.14,ug/m3,1,0,Valid,0.958,0.958,ug/m3,1,0,Valid,1.24,1.24,ug/m3,1,0,Valid,1.322,1.322,ug/m3,1,0,Valid
07/07/2019 17:00,07/07/2019 18:00,0.843,0.843,ug/m3,1,0,Valid,2.408,2.408,ug/m3,1,0,Valid,1.542,1.542,ug/m3,1,0,Valid,2.618,2.618,ug/m3,1,0,Valid,1.333,1.333,ug/m3,1,0,Valid,1.005,1.005,ug/m3,1,0,Valid,1.542,1.542,ug/m3,1,0,Valid,1.49,1.49,ug/m3,1,0,Valid
07/07/2019 18:00,07/07/2019 19:00,0.972,0.972,ug/m3,1,0,Valid,2.232,2.232,ug/m3,1,0,Valid,1.375,1.375,ug/m3,1,0,Valid,2.115,2.115,ug/m3,1,0,Valid,1.378,1.378,ug/m3,1,0,Valid,1.01,1.01,ug/m3,1,0,Valid,2.858,2.858,ug/m3,1,0,Valid,1.257,1.257,ug/m3,1,0,Valid
07/07/2019 19:00,07/07/2019 20:00,0.965,0.965,ug/m3,1,0,Valid,1.907,1.907,ug/m3,1,0,Valid,1.44,1.44,ug/m3,1,0,Valid,2.42,2.42,ug/m3,1,0,Valid,1.395,1.395,ug/m3,1,0,Valid,1.01,1.01,ug/m3,1,0,Valid,2.597,2.597,ug/m3,1,0,Valid,1.15,1.15,ug/m3,1,0,Valid
07/07/2019 20:00,07/07/2019 21:00,1.22,1.22,ug/m3,1,0,Valid,1.83,1.83,ug/m3,1,0,Valid,1.603,1.603,ug/m3,1,0,Valid,2.433,2.433,ug/m3,1,0,Valid,1.65,1.65,ug/m3,1,0,Valid,1.09,1.09,ug/m3,1,0,Valid,2.447,2.447,ug/m3,1,0,Valid,1.368,1.368,ug/m3,1,0,Valid
07/07/2019 21:00,07/07/2019 22:00,1.057,1.057,ug/m3,1,0,Valid,1.39,1.39,ug/m3,1,0,Valid,1.293,1.293,ug/m3,1,0,Valid,2.18,2.18,ug/m3,1,0,Valid,1.415,1.415,ug/m3,1,0,Valid,1.097,1.097,ug/m3,1,0,Valid,2.125,2.125,ug/m3,1,0,Valid,1.405,1.405,ug/m3,1,0,Valid
07/07/2019 22:00,07/07/2019 23:00,1.21,1.21,ug/m3,1,0,Valid,1.76,1.76,ug/m3,1,0,Valid,1.42,1.42,ug/m3,1,0,Valid,2.582,2.582,ug/m3,1,0,Valid,2.045,2.045,ug/m3,1,0,Valid,1.243,1.243,ug/m3,1,0,Valid,1.95,1.95,ug/m3,1,0,Valid,1.5,1.5,ug/m3,1,0,Valid
07/07/2019 23:00,08/07/2019 00:00,1.395,1.395,ug/m3,1,0,Valid,1.68,1.68,ug/m3,1,0,Valid,1.408,1.408,ug/m3,1,0,Valid,2.155,2.155,ug/m3,1,0,Valid,2.17,2.17,ug/m3,1,0,Valid,1.493,1.493,ug/m3,1,0,Valid,2.172,2.172,ug/m3,1,0,Valid,1.693,1.693,ug/m3,1,0,Valid
08/07/2019 00:00,08/07/2019 01:00,1.278,1.278,ug/m3,1,0,Valid,1.722,1.722,ug/m3,1,0,Valid,1.273,1.273,ug/m3,1,0,Valid,2.215,2.215,ug/m3,1,0,Valid,2.245,2.245,ug/m3,1,0,Valid,1.317,1.317,ug/m3,1,0,Valid,2.275,2.275,ug/m3,1,0,Valid,1.712,1.712,ug/m3,1,0,Valid
08/07/2019 01:00,08/07/2019 02:00,1.41,1.41,ug/m3,1,0,Valid,1.882,1.882,ug/m3,1,0,Valid,1.382,1.382,ug/m3,1,0,Valid,2.693,2.693,ug/m3,1,0,Valid,2.468,2.468,ug/m3,1,0,Valid,1.507,1.507,ug/m3,1,0,Valid,2.265,2.265,ug/m3,1,0,Valid,1.793,1.793,ug/m3,1,0,Valid